Temperature
18 18 18 18 18 18 18 18 17 17 17 17 17 18 18 18 17 17 18 18 18 17 17 17 17 17 17 17 17 17 17 16 16 16 16 16 16 16 16 16 16 16 16
18 18 18 18 18 18 18 18 18 18 18 18 17 17 17 17 17 17 17 17 17 17 17 17 17 17 17 17 17 17 17 17 16 16 16 16 16 16 16 16 16 16 16
18 18 18 18 18 18 18 18 18 18 18 18 18 17 17 17 17 17 17 17 17 17 17 17 17 17 17 17 17 17 17 17 16 16 16 16 16 16 16 16 16 16 15
18 18 18 18 18 18 18 18 18 18 18 18 18 18 17 17 17 17 17 17 17 17 17 17 17 17 17 17 17 17 17 17 16 16 16 16 16 16 16 16 16 16 16
18 18 18 18 18 18 18 18 18 18 18 18 18 18 18 17 17 17 17 17 17 17 17 17 17 17 17 17 17 17 17 17 16 16 16 16 16 16 16 16 16 16 16
18 18 18 18 18 18 18 18 18 18 18 18 18 18 18 18 18 17 17 17 17 17 17 17 17 17 17 17 17 17 17 17 16 16 16 16 16 16 16 16 16 16 15
18 18 18 18 18 18 18 18 18 18 18 18 18 18 18 18 18 18 18 18 17 17 17 17 17 17 17 17 17 17 17 17 16 16 16 16 16 16 16 16 16 15 15
18 18 18 18 18 18 18 18 18 18 18 18 18 18 18 18 18 18 18 18 18 18 17 17 17 17 17 17 17 17 17 17 16 16 16 16 16 16 16 16 15 15 15
18 18 18 18 18 18 18 18 18 18 18 18 18 18 18 18 18 18 18 18 18 18 18 18 17 17 17 17 17 17 16 16 16 16 16 16 16 16 16 15 15 15 15
18 18 18 18 18 18 18 18 18 18 18 18 18 18 18 18 18 18 18 18 18 18 18 18 17 17 17 17 17 17 17 16 16 16 16 16 16 16 15 15 15 15 15
18 18 18 18 18 18 18 18 18 18 18 18 18 18 18 18 18 18 18 18 18 18 18 18 18 17 17 17 17 17 17 16 16 16 16 16 16 15 15 15 15 15 15
18 18 18 18 18 18 18 18 18 18 18 18 18 18 18 18 18 18 18 18 18 18 18 18 18 17 17 17 17 17 16 16 16 16 16 16 15 15 15 15 15 15 15
18 18 18 18 18 18 18 18 18 18 18 18 18 18 18 18 18 18 18 18 18 18 18 17 17 17 17 17 17 17 16 16 16 16 16 15 15 15 15 15 14 14 14
18 18 18 18 18 18 18 18 18 18 17 18 18 18 18 18 18 18 18 18 18 18 17 17 17 17 17 17 17 16 16 16 16 16 15 15 15 15 15 14 14 14 14
18 18 18 18 18 17 17 17 17 17 17 17 17 17 17 18 18 18 17 17 17 17 17 17 17 16 16 16 16 16 16 15 15 15 15 15 15 14 14 14 14 14 13
18 18 18 18 17 17 17 17 17 17 17 17 17 17 17 17 17 17 17 17 17 17 16 16 16 16 16 16 15 15 15 15 15 14 14 14 14 14 14 14 13 13 13
18 18 18 17 17 17 17 17 17 17 17 17 17 17 17 17 17 17 17 17 16 16 16 16 15 15 15 15 15 15 14 14 14 14 14 14 13 13 13 13 13 13 12
17 17 17 17 17 17 17 17 17 16 16 16 16 16 16 16 16 16 16 16 16 16 16 15 15 15 14 14 14 14 14 13 13 13 13 13 13 12 12 12 12 12 11
17 17 17 17 17 16 16 16 16 16 16 16 16 16 16 16 16 16 16 16 15 15 15 15 14 14 14 14 13 13 13 13 12 12 12 12 12 12 11 11 11 11 11
17 17 17 16 16 16 16 16 16 16 16 16 15 15 15 15 15 15 15 15 15 15 15 14 14 13 13 13 13 12 12 12 12 12 11 11 11 11 11 11 10 10 10
17 16 16 16 16 16 16 15 15 15 15 15 15 15 15 15 15 14 14 14 14 14 14 14 13 13 13 13 12 12 12 12 11 11 11 11 11 10 10 10 10 9 9
16 16 16 16 16 15 15 15 15 15 15 14 14 14 14 14 14 14 14 14 14 14 13 13 13 12 12 12 12 12 12 11 11 10 10 10 10 10 9 9 9 9 9
16 16 16 15 15 15 15 15 15 14 14 14 14 14 13 14 13 13 13 13 13 13 13 13 12 12 12 11 11 11 11 11 11 10 10 10 9 9 9 9 9 8 8
15 15 15 15 15 14 14 14 14 14 14 13 13 13 13 13 13 13 13 13 13 12 12 12 12 11 11 11 11 11 10 10 10 10 10 9 9 9 9 9 8 8 8
15 15 15 14 14 14 14 14 14 13 13 13 13 13 12 12 12 12 12 12 12 11 11 11 11 11 11 10 10 10 10 10 9 9 9 9 9 8 8 8 8 8 8
14 14 14 14 14 14 14 13 13 13 13 13 12 12 12 12 11 11 11 11 11 10 10 10 10 10 10 10 9 10 10 9 9 9 8 8 8 8 8 8 8 8 7
Wind_Speed
3 4 4 5 6 7 6 4 4 4 4 3 3 3 3 4 9 12 12 14 13 11 11 10 10 10 10 9 9 9 8 8 8 8 7 7 7 7 6 6 6 5 5
5 4 3 2 3 5 5 4 4 3 2 2 2 3 3 3 6 11 13 13 12 12 11 10 10 10 10 9 9 9 8 8 8 8 7 6 6 7 6 6 5 5 5
7 4 3 2 3 5 5 3 3 3 3 3 3 3 3 4 5 7 12 13 12 12 12 12 11 10 10 10 10 10 9 9 9 8 8 8 7 7 7 6 6 6 6
8 5 3 3 5 5 4 2 2 2 2 2 3 3 3 4 5 6 9 13 13 12 14 14 13 12 12 11 11 11 10 10 10 9 9 9 9 8 8 7 7 7 7
7 5 2 3 5 3 3 3 3 1 2 2 3 3 3 3 4 5 6 9 12 13 14 15 16 15 14 13 12 12 12 11 11 11 11 10 10 9 9 9 8 8 8
7 5 4 5 4 2 2 2 2 1 1 2 3 3 4 4 4 4 5 7 9 12 15 15 15 15 16 15 14 13 13 12 12 12 12 11 11 11 10 10 10 10 10
7 4 2 4 3 2 3 3 3 3 3 3 1 1 3 4 5 4 4 4 6 9 11 15 15 14 14 16 16 14 14 13 13 13 13 12 12 12 12 12 11 11 11
8 7 4 3 3 3 3 3 2 2 3 3 2 1 2 2 3 6 5 5 5 7 8 12 14 14 13 13 15 17 15 14 13 13 13 13 13 12 12 12 12 12 12
8 6 5 4 3 4 4 4 4 4 2 2 2 2 1 1 1 2 5 5 5 5 4 7 11 13 13 12 13 16 17 15 13 12 12 12 13 13 13 12 11 11 11
6 6 5 5 3 3 4 5 5 4 3 3 2 3 3 2 2 1 1 1 3 3 4 4 4 10 11 9 9 12 15 15 13 12 11 10 11 12 11 11 10 10 10
5 7 7 5 4 3 4 4 3 3 3 3 2 2 2 2 3 3 2 2 2 2 2 1 1 4 8 8 7 8 12 13 12 11 10 9 9 9 9 9 8 8 8
5 7 7 6 5 4 4 4 3 5 4 3 2 2 2 2 2 2 2 3 2 1 1 1 2 3 5 7 7 7 11 11 11 10 9 8 7 7 8 7 7 7 6
4 6 6 5 4 4 4 4 4 4 4 4 3 3 3 3 2 2 2 2 2 1 1 1 1 3 4 6 7 7 9 11 11 9 8 7 6 6 5 5 4 5 4
4 4 4 4 4 5 5 4 4 5 4 4 5 4 3 3 2 2 2 2 2 2 1 1 1 3 3 4 6 8 7 11 11 10 9 8 7 6 5 5 4 3 3
3 3 3 4 4 4 3 3 3 4 3 4 4 3 3 3 3 2 2 2 3 3 2 1 0 2 4 4 7 7 6 8 10 10 9 8 7 7 6 5 5 4 3
1 1 1 2 3 3 2 2 3 3 3 3 2 2 2 2 2 2 1 1 1 1 2 1 0 1 3 5 7 8 8 9 9 9 9 8 7 7 6 6 5 5 4
2 1 1 1 1 1 1 1 2 1 2 2 2 1 2 2 1 2 2 1 0 1 2 1 0 1 2 3 5 6 7 8 8 9 10 10 9 9 8 8 7 6 5
1 1 1 1 1 1 1 1 0 0 0 0 1 1 1 1 0 1 2 1 1 0 2 3 2 1 1 2 3 4 5 7 8 10 11 11 11 11 10 9 8 7 6
2 2 2 2 2 2 2 2 2 2 2 2 2 2 2 2 2 1 1 2 1 1 1 3 2 1 1 2 2 3 5 5 7 8 9 10 10 11 11 9 8 8 7
3 3 3 3 3 3 3 3 2 2 3 3 4 4 4 3 2 2 2 2 1 1 1 2 3 2 1 2 2 3 3 2 3 5 7 9 11 11 11 10 9 8 8
4 4 3 4 3 3 2 2 2 3 3 4 5 5 6 8 8 6 4 3 2 1 1 2 2 2 1 1 1 2 3 4 3 3 3 6 8 7 8 9 8 8 7
4 4 4 4 4 3 5 6 5 4 5 5 5 4 5 7 9 11 12 12 9 5 2 2 2 3 2 2 2 2 2 2 2 1 2 2 5 3 6 7 8 8 7
5 5 5 5 6 6 7 7 7 6 6 5 5 4 4 5 5 5 8 10 11 12 9 5 4 3 3 2 2 3 2 2 2 1 1 1 2 3 6 8 9 8 7
5 5 5 5 6 6 7 7 8 7 7 6 6 5 5 5 6 6 7 9 9 9 8 6 6 5 4 3 2 2 3 3 3 2 2 1 1 2 4 8 10 10 8
6 6 5 5 6 6 6 6 6 5 6 7 6 7 6 6 8 8 7 7 6 6 11 13 12 10 10 10 7 3 2 2 3 2 2 1 1 1 2 3 8 10 9
6 6 6 6 6 6 6 6 5 4 5 5 6 7 9 8 8 7 6 6 5 4 5 5 6 6 6 7 8 6 3 2 2 3 2 1 1 1 0 2 4 8 9
Wind_Direction
141 136 145 151 169 157 165 166 138 142 136 131 126 116 83 80 119 127 138 148 151 154 155 156 157 158 158 157 156 156 155 155 156 159 161 162 162 161 158 156 155 158 157
135 137 151 168 161 135 132 133 138 144 138 142 140 139 139 117 109 133 144 157 164 167 169 170 171 171 171 172 172 172 171 170 169 172 178 178 178 176 175 176 176 177 179
142 148 153 191 148 131 132 149 156 157 176 171 160 150 144 138 144 147 154 163 171 179 181 181 184 185 184 185 187 187 187 187 186 189 194 195 193 193 193 193 195 194 196
157 168 173 178 150 154 164 161 180 179 177 169 165 178 153 154 163 174 171 171 175 180 187 191 192 194 196 198 199 199 200 200 199 202 205 205 205 206 206 207 209 210 212
166 178 159 142 170 181 176 189 153 180 187 177 184 185 184 178 175 199 187 181 179 177 181 193 199 201 204 205 207 209 209 209 209 211 213 214 215 216 216 218 219 220 223
178 191 171 166 184 175 166 144 131 198 209 212 228 184 199 185 183 196 206 191 184 185 184 184 193 205 211 212 214 216 215 214 214 216 218 220 221 221 223 225 226 228 229
182 202 195 161 192 181 173 175 174 204 225 212 212 239 239 206 192 195 209 197 190 198 190 177 190 195 203 215 218 218 219 219 218 218 220 223 224 225 227 229 230 232 233
185 195 198 190 190 171 172 189 187 218 241 212 197 211 234 244 231 212 195 203 199 194 196 190 191 189 192 194 212 216 217 218 219 220 223 225 225 227 229 232 233 235 236
193 201 176 198 192 192 185 194 202 206 238 254 226 193 187 212 253 253 209 202 194 195 200 199 193 186 193 191 196 207 213 215 218 220 222 224 225 226 229 231 232 233 234
195 192 191 197 205 206 184 203 201 207 220 247 239 223 225 175 177 261 265 211 205 198 204 218 191 178 188 187 185 190 203 210 214 218 222 225 225 223 225 229 230 235 236
199 204 197 194 202 216 205 201 178 207 223 236 245 242 245 225 215 200 229 234 219 204 190 186 169 149 169 171 173 178 189 198 202 207 214 218 218 217 218 222 228 233 236
205 213 201 190 199 209 203 201 197 207 221 235 258 259 248 240 234 227 227 225 222 220 173 158 138 129 145 153 161 170 176 182 190 197 203 209 215 217 219 219 223 227 229
210 213 203 188 197 199 202 204 201 212 219 221 233 251 249 243 244 243 245 248 237 233 188 134 114 117 138 147 152 159 163 172 179 184 188 189 190 195 194 195 203 205 202
217 207 194 186 189 200 209 198 211 212 213 219 231 236 254 256 258 238 225 238 251 245 211 210 65 77 90 118 126 136 145 162 166 168 169 169 163 157 154 153 150 153 158
208 191 183 190 192 202 210 203 217 220 205 213 228 232 244 254 263 262 254 229 223 240 240 225 136 82 102 106 113 118 120 146 157 156 156 153 149 144 141 139 137 134 130
135 157 176 189 192 192 201 215 235 223 222 223 224 232 258 275 272 279 282 290 257 230 235 265 10 68 91 107 114 118 111 114 134 144 142 139 139 138 135 130 126 120 109
134 148 139 158 175 185 190 191 231 212 219 228 244 221 226 277 318 325 320 314 302 192 203 209 138 61 83 93 111 120 114 107 110 126 129 128 124 119 115 113 110 106 102
122 110 110 115 132 120 110 112 171 185 91 64 356 359 324 299 313 311 325 331 330 184 174 174 169 152 114 117 124 129 121 114 115 117 122 122 120 117 112 108 104 101 97
124 107 92 98 94 104 103 92 81 65 71 70 61 62 37 20 354 357 354 359 0 31 140 163 171 173 163 154 139 134 121 121 127 128 127 126 125 118 111 105 101 98 92
109 98 85 80 78 77 75 80 90 87 81 75 66 65 58 55 43 29 32 13 15 52 125 140 152 158 161 172 152 148 129 107 101 114 116 122 119 113 109 105 102 99 97
112 103 96 85 84 82 76 95 108 106 95 86 74 70 70 71 64 60 59 38 35 48 102 131 133 126 125 141 158 158 131 123 87 86 112 128 127 122 116 108 105 103 99
109 106 104 92 78 71 63 76 88 89 85 82 80 82 85 73 77 73 69 62 55 52 44 85 101 110 100 78 75 96 106 117 109 75 98 114 130 124 132 123 124 122 118
107 104 99 98 88 66 61 71 83 89 83 76 74 71 72 68 71 75 74 66 56 49 51 70 79 83 88 62 82 98 99 99 109 148 116 121 117 111 127 142 147 149 148
109 104 102 99 94 73 67 68 82 84 81 74 69 70 73 60 53 70 83 75 63 48 52 67 74 68 71 59 55 129 144 130 106 72 69 114 124 134 126 153 167 172 174
107 102 99 98 93 77 63 67 83 97 91 82 74 66 72 70 55 70 86 89 86 80 74 82 87 85 79 70 61 63 70 119 124 92 33 33 113 139 148 158 187 195 199
106 105 99 94 94 86 65 63 79 113 108 102 91 76 66 67 57 62 85 89 85 77 88 89 81 78 84 80 68 53 45 51 95 96 40 10 21 40 171 174 183 195 209
Height
1569 1570 1571 1573 1574 1575 1576 1578 1579 1580 1581 1582 1583 1583 1584 1584 1585 1585 1585 1586 1587 1587 1588 1589 1590 1591 1592 1592 1593 1594 1595 1596 1597 1598 1599 1599 1600 1601 1601 1602 1602 1603 1603
1569 1570 1571 1573 1574 1576 1577 1578 1579 1580 1581 1582 1583 1583 1584 1585 1585 1585 1586 1586 1587 1588 1589 1589 1590 1591 1592 1592 1593 1594 1595 1595 1596 1597 1598 1599 1600 1601 1601 1602 1602 1603 1603
1568 1570 1572 1573 1575 1576 1577 1578 1579 1580 1581 1582 1583 1583 1584 1585 1585 1586 1586 1587 1587 1588 1589 1589 1590 1591 1591 1592 1593 1593 1594 1595 1596 1597 1597 1598 1599 1600 1600 1601 1601 1602 1602
1568 1569 1571 1573 1574 1575 1576 1578 1579 1580 1581 1582 1582 1583 1584 1584 1585 1586 1586 1587 1587 1588 1589 1589 1590 1590 1591 1591 1592 1593 1594 1594 1595 1596 1596 1597 1598 1598 1599 1600 1600 1601 1601
1567 1569 1570 1572 1573 1575 1576 1577 1578 1579 1580 1581 1582 1582 1583 1584 1584 1585 1586 1587 1587 1587 1588 1589 1589 1589 1590 1591 1591 1592 1592 1593 1594 1594 1595 1596 1596 1597 1598 1598 1599 1599 1600
1566 1568 1569 1571 1572 1574 1575 1576 1577 1578 1579 1580 1581 1582 1582 1583 1583 1584 1585 1586 1587 1587 1587 1587 1588 1588 1589 1589 1590 1591 1591 1592 1592 1593 1594 1594 1595 1595 1596 1596 1597 1597 1598
1565 1567 1568 1570 1571 1572 1573 1575 1576 1577 1578 1579 1580 1581 1581 1582 1582 1583 1584 1585 1586 1586 1586 1586 1586 1587 1587 1588 1588 1589 1590 1590 1591 1591 1592 1592 1593 1593 1594 1594 1595 1595 1595
1563 1565 1567 1568 1570 1571 1572 1573 1575 1576 1577 1578 1579 1580 1580 1582 1581 1582 1582 1583 1584 1585 1585 1585 1585 1585 1585 1586 1586 1587 1588 1588 1589 1589 1590 1590 1591 1591 1591 1592 1592 1592 1593
1561 1563 1565 1566 1568 1569 1570 1571 1573 1574 1575 1577 1578 1579 1579 1579 1579 1580 1581 1581 1582 1583 1583 1584 1584 1583 1584 1584 1585 1585 1586 1586 1587 1587 1587 1588 1588 1588 1589 1589 1589 1589 1590
1560 1561 1563 1564 1566 1567 1568 1569 1571 1572 1573 1575 1576 1576 1578 1578 1578 1579 1580 1579 1580 1580 1581 1582 1582 1582 1582 1582 1583 1583 1583 1584 1584 1585 1585 1585 1585 1586 1586 1586 1586 1587 1587
1557 1559 1561 1562 1563 1565 1566 1567 1569 1570 1571 1572 1574 1574 1575 1576 1577 1577 1577 1578 1578 1578 1579 1579 1580 1580 1580 1580 1580 1581 1581 1581 1582 1582 1582 1582 1583 1583 1583 1583 1583 1583 1583
1555 1556 1558 1559 1561 1562 1564 1565 1566 1567 1569 1570 1571 1572 1573 1574 1574 1575 1575 1575 1576 1576 1576 1576 1577 1577 1577 1578 1578 1578 1578 1578 1579 1579 1579 1579 1580 1580 1580 1580 1580 1580 1580
1552 1554 1555 1556 1558 1559 1561 1562 1564 1565 1566 1567 1568 1569 1570 1571 1572 1572 1572 1573 1573 1573 1574 1574 1574 1575 1575 1575 1575 1575 1575 1575 1575 1576 1576 1576 1576 1577 1577 1577 1577 1577 1577
1550 1551 1553 1554 1555 1557 1558 1560 1561 1562 1563 1564 1565 1566 1567 1568 1569 1569 1570 1570 1570 1570 1570 1571 1571 1572 1571 1572 1572 1572 1572 1572 1572 1572 1572 1573 1573 1573 1573 1574 1574 1574 1574
1548 1549 1550 1551 1553 1554 1556 1557 1558 1559 1560 1561 1562 1563 1564 1564 1565 1566 1566 1567 1567 1566 1567 1568 1568 1568 1568 1568 1568 1568 1568 1568 1569 1569 1569 1570 1570 1570 1571 1571 1571 1571 1571
1546 1547 1548 1550 1550 1552 1553 1554 1555 1556 1557 1558 1559 1559 1560 1561 1562 1562 1563 1563 1563 1563 1563 1563 1564 1565 1565 1565 1565 1565 1565 1565 1565 1566 1566 1567 1567 1567 1567 1567 1568 1567 1567
1544 1545 1546 1547 1548 1549 1550 1551 1552 1553 1554 1555 1555 1556 1556 1557 1558 1558 1558 1559 1559 1559 1559 1559 1561 1561 1562 1562 1562 1562 1562 1562 1562 1563 1563 1563 1564 1564 1564 1564 1564 1564 1564
1542 1544 1545 1545 1546 1547 1548 1549 1550 1551 1552 1552 1553 1553 1554 1554 1554 1555 1555 1555 1555 1555 1556 1555 1556 1557 1558 1558 1559 1559 1559 1559 1560 1560 1561 1561 1561 1561 1561 1561 1561 1561 1561
1541 1542 1543 1544 1544 1545 1546 1547 1548 1548 1549 1550 1550 1551 1551 1551 1551 1551 1552 1552 1552 1552 1552 1552 1553 1554 1555 1555 1556 1556 1557 1557 1557 1557 1558 1558 1558 1558 1559 1559 1559 1559 1559
1539 1540 1541 1542 1543 1544 1544 1545 1546 1546 1547 1548 1548 1548 1549 1549 1549 1549 1549 1549 1550 1549 1550 1550 1550 1551 1552 1553 1554 1554 1555 1555 1556 1556 1556 1556 1556 1556 1556 1557 1557 1557 1557
1538 1539 1540 1541 1541 1542 1543 1543 1544 1545 1545 1546 1546 1546 1547 1547 1547 1547 1547 1547 1547 1547 1548 1548 1548 1549 1549 1550 1551 1552 1552 1553 1554 1554 1554 1554 1554 1554 1554 1555 1555 1555 1555
1536 1537 1538 1539 1540 1541 1542 1542 1543 1543 1544 1544 1545 1545 1546 1545 1545 1546 1545 1545 1545 1545 1545 1546 1546 1546 1547 1548 1549 1550 1550 1551 1552 1553 1553 1553 1554 1553 1553 1554 1554 1554 1553
1535 1536 1537 1538 1539 1540 1541 1542 1542 1542 1543 1543 1544 1544 1544 1544 1545 1545 1545 1544 1544 1544 1545 1545 1545 1545 1546 1547 1548 1548 1549 1550 1550 1552 1552 1552 1553 1553 1553 1553 1554 1553 1553
1535 1536 1537 1538 1539 1539 1540 1541 1542 1542 1542 1542 1543 1543 1543 1543 1544 1544 1544 1544 1544 1544 1544 1544 1544 1544 1545 1546 1547 1548 1548 1549 1550 1551 1551 1552 1552 1552 1553 1553 1553 1552 1552
1534 1535 1536 1537 1538 1539 1540 1540 1541 1541 1542 1542 1543 1543 1543 1543 1543 1544 1544 1543 1543 1544 1544 1545 1545 1545 1545 1546 1547 1547 1547 1548 1549 1549 1550 1551 1551 1551 1552 1552 1551 1551 1551
1534 1535 1536 1537 1537 1538 1539 1540 1541 1541 1541 1542 1542 1542 1543 1543 1543 1544 1544 1544 1544 1544 1545 1545 1545 1546 1546 1546 1546 1547 1547 1547 1548 1548 1549 1549 1550 1550 1551 1551 1550 1550 1550